Time,TemperatureF,DewpointF,PressureIn,WindDirection,WindDirectionDegrees,WindSpeedMPH,WindSpeedGustMPH,Humidity,HourlyPrecipIn,Conditions,Clouds,dailyrainin,SolarRadiationWatts/m^2,SoftwareType,DateUTC
2013-04-21 00:22:00,34.0,32.0,-100.00,East,92,8.0,10.0,94,0.00,,,0.00,0.000000,,2013-04-21 05:22:00,
2013-04-21 00:32:00,34.0,32.0,-100.00,East,92,8.0,10.0,94,0.00,,,0.00,0.000000,,2013-04-21 05:32:00,
2013-04-21 00:42:00,34.0,32.0,-100.00,East,92,8.0,10.0,94,0.00,,,0.00,0.000000,,2013-04-21 05:42:00,
2013-04-21 00:52:00,34.0,32.0,-100.00,East,92,8.0,10.0,94,0.00,,,0.00,0.000000,,2013-04-21 05:52:00,
2013-04-21 01:22:00,33.0,33.0,-100.00,East,91,7.0,9.0,99,0.00,,,0.00,0.000000,,2013-04-21 06:22:00,
2013-04-21 01:32:00,33.0,33.0,-100.00,East,91,7.0,9.0,99,0.00,,,0.00,0.000000,,2013-04-21 06:32:00,
2013-04-21 01:42:00,33.0,33.0,-100.00,East,91,7.0,9.0,99,0.00,,,0.00,0.000000,,2013-04-21 06:42:00,
2013-04-21 01:51:00,33.0,33.0,-100.00,East,91,7.0,9.0,99,0.00,,,0.00,0.000000,,2013-04-21 06:51:00,
2013-04-21 02:21:00,34.0,34.0,-100.00,East,93,8.0,10.0,100,0.00,,,0.00,0.000000,,2013-04-21 07:21:00,
2013-04-21 02:32:00,34.0,34.0,-100.00,East,93,8.0,10.0,100,0.00,,,0.00,0.000000,,2013-04-21 07:32:00,
2013-04-21 02:42:00,34.0,34.0,-100.00,East,93,8.0,10.0,100,0.00,,,0.00,0.000000,,2013-04-21 07:42:00,
2013-04-21 02:52:00,34.0,34.0,-100.00,East,93,8.0,10.0,100,0.00,,,0.00,0.000000,,2013-04-21 07:52:00,
2013-04-21 03:21:00,32.0,32.0,-100.00,ESE,104,7.0,9.0,100,0.00,,,0.00,0.000000,,2013-04-21 08:21:00,
2013-04-21 03:32:00,32.0,32.0,-100.00,ESE,104,7.0,9.0,100,0.00,,,0.00,0.000000,,2013-04-21 08:32:00,
2013-04-21 03:42:00,32.0,32.0,-100.00,ESE,104,7.0,9.0,100,0.00,,,0.00,0.000000,,2013-04-21 08:42:00,
2013-04-21 03:52:00,32.0,32.0,-100.00,ESE,104,7.0,9.0,100,0.00,,,0.00,0.000000,,2013-04-21 08:52:00,
2013-04-21 04:21:00,33.0,33.0,-100.00,ESE,123,8.0,9.0,100,0.00,,,0.00,0.000000,,2013-04-21 09:21:00,
2013-04-21 04:32:00,33.0,33.0,-100.00,ESE,123,8.0,9.0,100,0.00,,,0.00,0.000000,,2013-04-21 09:32:00,
2013-04-21 04:43:00,33.0,33.0,-100.00,ESE,123,8.0,9.0,100,0.00,,,0.00,0.000000,,2013-04-21 09:43:00,
2013-04-21 04:52:00,33.0,33.0,-100.00,ESE,123,8.0,9.0,100,0.00,,,0.00,0.000000,,2013-04-21 09:52:00,
2013-04-21 05:22:00,31.0,31.0,-100.00,SE,129,6.0,9.0,100,0.00,,,0.00,0.000000,,2013-04-21 10:22:00,
2013-04-21 05:32:00,31.0,31.0,-100.00,SE,129,6.0,9.0,100,0.00,,,0.00,0.000000,,2013-04-21 10:32:00,
2013-04-21 05:42:00,31.0,31.0,-100.00,SE,129,6.0,9.0,100,0.00,,,0.00,0.000000,,2013-04-21 10:42:00,
2013-04-21 05:52:00,31.0,31.0,-100.00,SE,129,6.0,9.0,100,0.00,,,0.00,0.000000,,2013-04-21 10:52:00,
2013-04-21 06:22:00,32.0,32.0,-100.00,SE,141,7.0,8.0,100,0.00,,,0.00,0.000000,,2013-04-21 11:22:00,
2013-04-21 06:34:00,32.0,32.0,-100.00,SE,141,7.0,8.0,100,0.00,,,0.00,0.000000,,2013-04-21 11:34:00,
2013-04-21 06:42:00,32.0,32.0,-100.00,SE,141,7.0,8.0,100,0.00,,,0.00,0.000000,,2013-04-21 11:42:00,
2013-04-21 06:52:00,32.0,32.0,-100.00,SE,141,7.0,8.0,100,0.00,,,0.00,0.000000,,2013-04-21 11:52:00,
2013-04-21 07:22:00,34.0,34.0,-100.00,SE,142,8.0,10.0,100,0.00,,,0.00,0.000000,,2013-04-21 12:22:00,
2013-04-21 07:32:00,34.0,34.0,-100.00,SE,142,8.0,10.0,100,0.00,,,0.00,0.000000,,2013-04-21 12:32:00,
2013-04-21 07:42:00,34.0,34.0,-100.00,SE,142,8.0,10.0,100,0.00,,,0.00,0.000000,,2013-04-21 12:42:00,
2013-04-21 07:52:00,34.0,34.0,-100.00,SE,142,8.0,10.0,100,0.00,,,0.00,0.000000,,2013-04-21 12:52:00,
2013-04-21 08:21:00,39.0,39.0,-100.00,SE,146,8.0,10.0,100,0.00,,,0.00,0.000000,,2013-04-21 13:21:00,
2013-04-21 08:32:00,39.0,39.0,-100.00,SE,146,8.0,10.0,100,0.00,,,0.00,0.000000,,2013-04-21 13:32:00,
2013-04-21 08:42:00,39.0,39.0,-100.00,SE,146,8.0,10.0,100,0.00,,,0.00,0.000000,,2013-04-21 13:42:00,
2013-04-21 08:52:00,39.0,39.0,-100.00,SE,146,8.0,10.0,100,0.00,,,0.00,0.000000,,2013-04-21 13:52:00,
2013-04-21 09:21:00,47.0,47.0,-100.00,South,172,13.0,17.0,99,0.00,,,0.00,0.000000,,2013-04-21 14:21:00,
2013-04-21 09:32:00,47.0,47.0,-100.00,South,172,13.0,17.0,99,0.00,,,0.00,0.000000,,2013-04-21 14:32:00,
2013-04-21 09:42:00,47.0,47.0,-100.00,South,172,13.0,17.0,99,0.00,,,0.00,0.000000,,2013-04-21 14:42:00,
2013-04-21 09:52:00,47.0,47.0,-100.00,South,172,13.0,17.0,99,0.00,,,0.00,0.000000,,2013-04-21 14:52:00,
2013-04-21 10:22:00,56.0,45.0,-100.00,SSW,200,19.0,25.0,67,0.00,,,0.00,0.000000,,2013-04-21 15:22:00,
2013-04-21 10:33:00,56.0,45.0,-100.00,SSW,200,19.0,25.0,67,0.00,,,0.00,0.000000,,2013-04-21 15:33:00,
2013-04-21 10:43:00,56.0,45.0,-100.00,SSW,200,19.0,25.0,67,0.00,,,0.00,0.000000,,2013-04-21 15:43:00,
2013-04-21 10:53:00,56.0,45.0,-100.00,SSW,200,19.0,25.0,67,0.00,,,0.00,0.000000,,2013-04-21 15:53:00,
2013-04-21 11:23:00,58.0,39.0,-100.00,SSW,201,20.0,28.0,49,0.00,,,0.00,0.000000,,2013-04-21 16:23:00,
2013-04-21 11:33:00,58.0,39.0,-100.00,SSW,201,20.0,28.0,49,0.00,,,0.00,0.000000,,2013-04-21 16:33:00,
2013-04-21 11:42:00,58.0,39.0,-100.00,SSW,201,20.0,28.0,49,0.00,,,0.00,0.000000,,2013-04-21 16:42:00,
2013-04-21 11:52:00,58.0,39.0,-100.00,SSW,201,20.0,28.0,49,0.00,,,0.00,0.000000,,2013-04-21 16:52:00,
2013-04-21 12:23:00,62.0,40.0,-100.00,South,191,20.0,28.0,45,0.00,,,0.00,0.000000,,2013-04-21 17:23:00,
2013-04-21 12:32:00,62.0,40.0,-100.00,South,191,20.0,28.0,45,0.00,,,0.00,0.000000,,2013-04-21 17:32:00,
2013-04-21 12:42:00,62.0,40.0,-100.00,South,191,20.0,28.0,45,0.00,,,0.00,0.000000,,2013-04-21 17:42:00,
2013-04-21 12:52:00,62.0,40.0,-100.00,South,191,20.0,28.0,45,0.00,,,0.00,0.000000,,2013-04-21 17:52:00,
2013-04-21 13:22:00,65.0,37.0,-100.00,South,191,18.0,26.0,36,0.00,,,0.00,0.000000,,2013-04-21 18:22:00,
2013-04-21 13:32:00,65.0,37.0,-100.00,South,191,18.0,26.0,36,0.00,,,0.00,0.000000,,2013-04-21 18:32:00,
2013-04-21 13:42:00,65.0,37.0,-100.00,South,191,18.0,26.0,36,0.00,,,0.00,0.000000,,2013-04-21 18:42:00,
2013-04-21 13:52:00,65.0,37.0,-100.00,South,191,18.0,26.0,36,0.00,,,0.00,0.000000,,2013-04-21 18:52:00,
2013-04-21 14:21:00,66.0,38.0,-100.00,SSW,196,16.0,28.0,36,0.00,,,0.00,0.000000,,2013-04-21 19:21:00,
2013-04-21 14:32:00,66.0,38.0,-100.00,SSW,196,16.0,28.0,36,0.00,,,0.00,0.000000,,2013-04-21 19:32:00,
2013-04-21 14:42:00,66.0,38.0,-100.00,SSW,196,16.0,28.0,36,0.00,,,0.00,0.000000,,2013-04-21 19:42:00,
2013-04-21 14:52:00,66.0,38.0,-100.00,SSW,196,16.0,28.0,36,0.00,,,0.00,0.000000,,2013-04-21 19:52:00,
2013-04-21 15:22:00,69.0,38.0,-100.00,SSW,192,16.0,26.0,32,0.00,,,0.00,0.000000,,2013-04-21 20:22:00,
2013-04-21 15:32:00,69.0,38.0,-100.00,SSW,192,16.0,26.0,32,0.00,,,0.00,0.000000,,2013-04-21 20:32:00,
2013-04-21 15:42:00,69.0,38.0,-100.00,SSW,192,16.0,26.0,32,0.00,,,0.00,0.000000,,2013-04-21 20:42:00,
2013-04-21 15:52:00,69.0,38.0,-100.00,SSW,192,16.0,26.0,32,0.00,,,0.00,0.000000,,2013-04-21 20:52:00,
2013-04-21 16:21:00,67.0,38.0,-100.00,SSW,210,14.0,22.0,34,0.00,,,0.00,0.000000,,2013-04-21 21:21:00,
2013-04-21 16:33:00,67.0,38.0,-100.00,SSW,210,14.0,22.0,34,0.00,,,0.00,0.000000,,2013-04-21 21:33:00,
2013-04-21 16:43:00,67.0,38.0,-100.00,SSW,210,14.0,22.0,34,0.00,,,0.00,0.000000,,2013-04-21 21:43:00,
2013-04-21 16:53:00,67.0,38.0,-100.00,SSW,210,14.0,22.0,34,0.00,,,0.00,0.000000,,2013-04-21 21:53:00,
2013-04-21 17:22:00,70.0,39.0,-100.00,SSW,200,9.0,19.0,32,0.00,,,0.00,0.000000,,2013-04-21 22:22:00,
2013-04-21 17:33:00,70.0,39.0,-100.00,SSW,200,9.0,19.0,32,0.00,,,0.00,0.000000,,2013-04-21 22:33:00,
2013-04-21 17:43:00,70.0,39.0,-100.00,SSW,200,9.0,19.0,32,0.00,,,0.00,0.000000,,2013-04-21 22:43:00,
2013-04-21 17:52:00,70.0,39.0,-100.00,SSW,200,9.0,19.0,32,0.00,,,0.00,0.000000,,2013-04-21 22:52:00,
2013-04-21 18:22:00,66.0,40.0,-100.00,SW,235,15.0,22.0,39,0.00,,,0.00,0.000000,,2013-04-21 23:22:00,
2013-04-21 18:32:00,66.0,40.0,-100.00,SW,235,15.0,22.0,39,0.00,,,0.00,0.000000,,2013-04-21 23:32:00,
2013-04-21 18:42:00,66.0,40.0,-100.00,SW,235,15.0,22.0,39,0.00,,,0.00,0.000000,,2013-04-21 23:42:00,
2013-04-21 18:52:00,66.0,40.0,-100.00,SW,235,15.0,22.0,39,0.00,,,0.00,0.000000,,2013-04-21 23:52:00,
2013-04-21 19:22:00,61.0,41.0,-100.00,SW,225,10.0,16.0,47,0.00,,,0.00,0.000000,,2013-04-22 00:22:00,
2013-04-21 19:32:00,61.0,41.0,-100.00,SW,225,10.0,16.0,47,0.00,,,0.00,0.000000,,2013-04-22 00:32:00,
2013-04-21 19:42:00,61.0,41.0,-100.00,SW,225,10.0,16.0,47,0.00,,,0.00,0.000000,,2013-04-22 00:42:00,
2013-04-21 19:51:00,61.0,41.0,-100.00,SW,225,10.0,16.0,47,0.00,,,0.00,0.000000,,2013-04-22 00:51:00,
2013-04-21 20:21:00,54.0,48.0,-100.00,NW,323,7.0,20.0,79,0.01,,,0.01,0.000000,,2013-04-22 01:21:00,
2013-04-21 20:32:00,54.0,48.0,-100.00,NW,323,7.0,20.0,79,0.01,,,0.01,0.000000,,2013-04-22 01:32:00,
2013-04-21 20:42:00,54.0,48.0,-100.00,NW,323,7.0,20.0,79,0.01,,,0.01,0.000000,,2013-04-22 01:42:00,
2013-04-21 20:52:00,54.0,48.0,-100.00,NW,323,7.0,20.0,79,0.01,,,0.01,0.000000,,2013-04-22 01:52:00,
2013-04-21 21:21:00,49.0,49.0,-100.00,SSE,159,3.0,8.0,100,0.00,,,0.01,0.000000,,2013-04-22 02:21:00,
2013-04-21 21:32:00,49.0,49.0,-100.00,SSE,159,3.0,8.0,100,0.00,,,0.01,0.000000,,2013-04-22 02:32:00,
2013-04-21 21:42:00,49.0,49.0,-100.00,SSE,159,3.0,8.0,100,0.00,,,0.01,0.000000,,2013-04-22 02:42:00,
2013-04-21 21:52:00,49.0,49.0,-100.00,SSE,159,3.0,8.0,100,0.00,,,0.01,0.000000,,2013-04-22 02:52:00,
2013-04-21 22:22:00,50.0,50.0,-100.00,NE,55,6.0,9.0,100,0.00,,,0.01,0.000000,,2013-04-22 03:22:00,
2013-04-21 22:33:00,50.0,50.0,-100.00,NE,55,6.0,9.0,100,0.00,,,0.01,0.000000,,2013-04-22 03:33:00,
2013-04-21 22:43:00,50.0,50.0,-100.00,NE,55,6.0,9.0,100,0.00,,,0.01,0.000000,,2013-04-22 03:43:00,
2013-04-21 22:52:00,50.0,50.0,-100.00,NE,55,6.0,9.0,100,0.00,,,0.01,0.000000,,2013-04-22 03:52:00,
2013-04-21 23:23:00,50.0,50.0,-100.00,NNE,28,10.0,14.0,100,0.02,,,0.03,0.000000,,2013-04-22 04:23:00,
2013-04-21 23:33:00,50.0,50.0,-100.00,NNE,28,10.0,14.0,100,0.02,,,0.03,0.000000,,2013-04-22 04:33:00,
2013-04-21 23:43:00,50.0,50.0,-100.00,NNE,28,10.0,14.0,100,0.02,,,0.03,0.000000,,2013-04-22 04:43:00,
2013-04-21 23:52:00,50.0,50.0,-100.00,NNE,28,10.0,14.0,100,0.02,,,0.03,0.000000,,2013-04-22 04:52:00,